This is the latest recevied weather packets stored in our database for station/object KJ7HSW. If no packets are shown the sender has not sent any weather packets the latest 10 day(s).
| Time | Temp. | Humidity | Pressure | Rain* | Wind** | Luminosity | Snow |
|---|---|---|---|---|---|---|---|
| 1777428585 | 12.78° C | 70% | 1022.9 hPa | 0 mm | - | 40 W/m² | - |
| 1777428281 | 12.78° C | 69% | 1022.9 hPa | 0 mm | - | 44 W/m² | - |
| 1777427976 | 12.78° C | 69% | 1023 hPa | 0 mm | - | 48 W/m² | - |
| 1777427673 | 12.78° C | 69% | 1023 hPa | 0 mm | - | 51 W/m² | - |
| 1777427370 | 13.33° C | 69% | 1022.9 hPa | 0 mm | - | 49 W/m² | - |
| 1777427067 | 13.33° C | 69% | 1023 hPa | 0 mm | - | 50 W/m² | - |
| 1777426764 | 13.33° C | 69% | 1023 hPa | 0 mm | - | 52 W/m² | - |
| 1777426461 | 12.78° C | 68% | 1022.9 hPa | 0 mm | - | 51 W/m² | - |
| 1777426157 | 13.33° C | 68% | 1023 hPa | 0 mm | - | 52 W/m² | - |
| 1777425852 | 13.33° C | 68% | 1023 hPa | 0 mm | - | 54 W/m² | - |
| 1777425548 | 13.33° C | 68% | 1022.9 hPa | 0 mm | - | 54 W/m² | - |
| 1777425243 | 13.33° C | 69% | 1023.1 hPa | 0 mm | - | 53 W/m² | - |
| 1777424940 | 13.33° C | 68% | 1023 hPa | 0 mm | - | 55 W/m² | - |
| 1777424636 | 13.33° C | 69% | 1022.8 hPa | 0 mm | - | 56 W/m² | - |
| 1777424330 | 13.33° C | 67% | 1023 hPa | 0 mm | - | 55 W/m² | - |
| 1777424027 | 13.33° C | 67% | 1023 hPa | 0 mm | - | 53 W/m² | - |
| 1777423724 | 13.33° C | 66% | 1023 hPa | 0 mm | - | 56 W/m² | - |
| 1777423419 | 13.33° C | 66% | 1022.9 hPa | 0 mm | - | 59 W/m² | - |
| 1777423120 | 13.33° C | 66% | 1022.9 hPa | 0 mm | - | 62 W/m² | - |
| 1777422815 | 13.33° C | 68% | 1022.8 hPa | 0 mm | - | 66 W/m² | - |
| 1777422511 | 13.33° C | 68% | 1022.9 hPa | 0 mm | - | 70 W/m² | - |
| 1777422207 | 13.33° C | 67% | 1022.7 hPa | 0 mm | - | 68 W/m² | - |
| 1777421906 | 13.33° C | 68% | 1022.7 hPa | 0 mm | - | 72 W/m² | - |
| 1777421601 | 13.33° C | 68% | 1022.7 hPa | 0 mm | - | 72 W/m² | - |
| 1777421296 | 13.33° C | 68% | 1022.8 hPa | 0 mm | - | 68 W/m² | - |
* Rain latest hour (hover to see other rain measurements)
** Current wind speed in m/s (hover to see current wind gust speed)